GW4670 Weather Reports


time (UTC)temp
F
wind
direction
speed
knots
gust
knots
rain 1hr
in
rain 24hr
in
rain mn
in
humidity
%
barometer
mb
20260504081823 44 180 1.7 1.7 0.00 0.00 0.00 80 1001.0
20260504081320 44 180 0.0 0.0 0.00 0.00 0.00 81 1001.2
20260504080816 45 175 0.0 0.0 0.00 0.00 0.00 79 1001.1
20260504080313 45 160 1.7 1.7 0.00 0.00 0.00 75 1001.1
20260504070240 39 265 0.0 0.0 0.00 0.00 0.00 91 1001.8
20260504060201 41 201 0.0 0.0 0.00 0.00 0.00 85 1002.5
20260504050629 41 307 0.0 0.0 0.00 0.00 0.00 92 1003.2
20260504050126 41 309 0.0 0.0 0.00 0.00 0.00 92 1003.1
20260504045623 41 310 0.0 0.0 0.00 0.00 0.00 91 1003.0
20260504045118 42 310 0.0 0.0 0.00 0.00 0.00 91 1003.1
20260504044616 42 308 0.0 0.0 0.00 0.00 0.00 91 1003.2
20260504044113 41 325 0.9 0.9 0.00 0.00 0.00 90 1003.4
20260504043610 41 306 0.0 0.0 0.00 0.00 0.00 89 1003.3
20260504043107 42 305 0.0 0.0 0.00 0.00 0.00 89 1003.4
20260504042604 42 305 0.0 0.0 0.00 0.00 0.00 89 1003.3
20260504042101 42 305 0.0 0.9 0.00 0.00 0.00 88 1003.5
20260504041556 42 305 0.0 0.0 0.00 0.00 0.00 88 1003.5
20260504041053 42 305 0.0 0.0 0.00 0.00 0.00 88 1003.5
20260504040550 43 305 0.0 0.0 0.00 0.00 0.00 88 1003.6
20260504040041 42 305 0.0 0.0 0.00 0.00 0.00 86 1003.7
20260504035538 43 305 0.0 0.0 0.00 0.00 0.00 86 1003.7
20260504035034 43 305 0.0 0.0 0.00 0.00 0.00 84 1003.9
20260504034533 44 305 0.0 0.0 0.00 0.00 0.00 83 1003.8
20260504034029 45 305 0.0 0.0 0.00 0.00 0.00 82 1003.9
20260504033527 45 305 0.0 0.0 0.00 0.00 0.00 82 1003.8
20260504033024 45 305 0.0 0.0 0.00 0.00 0.00 82 1004.0
20260504032521 45 305 0.0 0.0 0.00 0.00 0.00 81 1003.8
20260504032018 46 305 0.0 0.0 0.00 0.00 0.00 80 1004.0
20260504031514 47 306 0.0 0.0 0.00 0.00 0.00 78 1004.0
20260504031010 47 298 0.0 0.0 0.00 0.00 0.00 79 1004.2
20260504030508 46 273 0.0 0.0 0.00 0.00 0.00 81 1004.1
20260504030004 46 268 0.0 0.0 0.00 0.00 0.00 80 1004.2
20260504025501 46 298 0.0 0.0 0.00 0.00 0.00 80 1004.1
20260504024957 46 333 0.0 0.0 0.00 0.00 0.00 80 1004.2
20260504024455 46 333 0.0 0.0 0.00 0.00 0.00 78 1003.9
20260504023952 47 333 0.0 0.0 0.00 0.00 0.00 76 1003.9
20260504023449 47 333 0.0 0.0 0.00 0.00 0.00 76 1003.9
20260504022944 48 333 0.0 0.0 0.00 0.00 0.00 74 1003.9
20260504022440 48 334 0.0 0.9 0.00 0.00 0.00 73 1003.8
20260504021937 48 334 0.0 0.0 0.00 0.00 0.00 73 1003.9
20260504021435 49 334 0.0 0.0 0.00 0.00 0.00 72 1003.8
20260504020932 50 338 0.0 0.0 0.00 0.00 0.00 70 1003.8
20260504020428 51 339 0.9 0.9 0.00 0.00 0.00 68 1003.8
20260504015925 52 339 0.9 0.9 0.00 0.00 0.00 64 1003.8
20260504015421 52 345 0.9 0.9 0.00 0.00 0.00 63 1003.8
20260504014917 53 340 0.9 0.9 0.00 0.00 0.00 61 1003.7
20260504014413 54 346 0.9 0.9 0.00 0.00 0.00 61 1003.5
20260504013910 55 346 0.9 0.9 0.00 0.00 0.00 55 1003.6
20260504013409 55 339 0.9 0.9 0.00 0.00 0.00 52 1003.4
20260504012904 57 345 0.9 0.9 0.00 0.00 0.00 52 1003.5
20260504012402 60 340 0.9 0.9 0.00 0.00 0.00 46 1003.5
20260504011859 60 341 0.9 0.9 0.00 0.00 0.00 44 1003.4
20260504011356 62 325 0.0 0.9 0.00 0.00 0.00 42 1003.2
20260504010847 66 304 1.7 2.6 0.00 0.00 0.00 35 1003.4
20260504010342 67 296 4.3 5.2 0.00 0.00 0.00 32 1003.4
20260504005839 67 300 3.5 5.2 0.00 0.00 0.00 33 1003.3
20260504005336 68 302 5.2 6.1 0.00 0.00 0.00 31 1003.2
20260504004833 69 297 5.2 6.1 0.00 0.00 0.00 31 1003.2
20260504004331 69 292 5.2 6.1 0.00 0.00 0.00 30 1003.2
20260504003827 70 290 6.1 7.0 0.00 0.00 0.00 29 1003.2
20260504003324 70 306 6.1 7.8 0.00 0.00 0.00 29 1003.3
20260504002821 70 275 9.6 12.2 0.00 0.00 0.00 28 1003.2
20260504002317 71 295 7.8 9.6 0.00 0.00 0.00 29 1003.2
20260504001815 71 293 7.8 9.6 0.00 0.00 0.00 28 1003.2
20260504001312 71 294 6.1 7.0 0.00 0.00 0.00 29 1003.0
20260504000809 72 296 7.8 8.7 0.00 0.00 0.00 28 1003.2
20260504000306 72 297 9.6 11.3 0.00 0.00 0.00 27 1003.3
20260503235804 72 298 7.8 8.7 0.00 0.00 0.00 27 1003.3
20260503235301 72 299 7.8 8.7 0.00 0.00 0.00 27 1003.1
20260503234759 72 321 5.2 7.0 0.00 0.00 0.00 28 1003.2
20260503234256 73 306 4.3 6.1 0.00 0.00 0.00 27 1003.0
20260503233753 73 304 4.3 6.1 0.00 0.00 0.00 27 1003.2
20260503233249 73 295 7.0 7.8 0.00 0.00 0.00 26 1003.0
20260503232746 73 289 8.7 11.3 0.00 0.00 0.00 25 1003.2
20260503232243 73 313 5.2 7.0 0.00 0.00 0.00 27 1003.1
20260503231741 73 323 4.3 5.2 0.00 0.00 0.00 27 1003.1
20260503231238 74 296 6.1 7.0 0.00 0.00 0.00 25 1003.1
20260503230734 74 285 12.2 13.9 0.00 0.00 0.00 24 1003.1
20260503230232 74 319 7.8 9.6 0.00 0.00 0.00 27 1003.0
20260503225729 74 301 5.2 7.8 0.00 0.00 0.00 26 1003.1
20260503225229 74 310 9.6 11.3 0.00 0.00 0.00 26 1002.9
20260503224726 74 289 7.8 9.6 0.00 0.00 0.00 26 1003.1
20260503224224 74 305 5.2 6.1 0.00 0.00 0.00 26 1003.1
20260503223721 74 350 5.2 7.0 0.00 0.00 0.00 28 1003.0
20260503223219 74 341 7.0 7.8 0.00 0.00 0.00 27 1002.9
20260503222715 74 312 6.1 7.0 0.00 0.00 0.00 26 1003.1
20260503222213 74 309 6.1 7.0 0.00 0.00 0.00 26 1003.2
20260503221711 74 330 6.1 7.8 0.00 0.00 0.00 25 1003.1
20260503221208 74 319 7.0 7.8 0.00 0.00 0.00 25 1003.0
20260503220705 74 317 7.8 7.8 0.00 0.00 0.00 26 1003.0
20260503220201 74 325 6.1 7.8 0.00 0.00 0.00 26 1003.0
20260503215658 75 329 8.7 8.7 0.00 0.00 0.00 24 1003.0
20260503215155 74 302 6.1 7.0 0.00 0.00 0.00 27 1002.9
20260503214654 74 313 6.1 7.8 0.00 0.00 0.00 29 1003.0
20260503214149 74 347 3.5 4.3 0.00 0.00 0.00 30 1003.1
20260503213643 74 325 10.4 13.9 0.00 0.00 0.00 26 1003.0
20260503213139 74 291 9.6 11.3 0.00 0.00 0.00 26 1003.2
20260503212637 74 334 7.8 11.3 0.00 0.00 0.00 26 1002.9
20260503212134 74 327 7.8 9.6 0.00 0.00 0.00 27 1003.1
20260503211632 74 334 7.0 7.8 0.00 0.00 0.00 30 1002.9
20260503211127 74 316 3.5 5.2 0.00 0.00 0.00 28 1003.0
20260503210623 74 322 5.2 5.2 0.00 0.00 0.00 29 1003.1
20260503210120 74 308 5.2 7.0 0.00 0.00 0.00 31 1003.2
20260503205616 74 347 6.1 7.8 0.00 0.00 0.00 32 1003.2
20260503205112 74 310 5.2 6.1 0.00 0.00 0.00 30 1003.2
20260503204609 74 319 7.8 8.7 0.00 0.00 0.00 27 1003.4
20260503204107 74 313 7.0 7.8 0.00 0.00 0.00 29 1003.3
20260503203604 74 305 7.0 7.8 0.00 0.00 0.00 32 1003.4
20260503203101 74 341 6.1 7.8 0.00 0.00 0.00 29 1003.5
20260503202558 74 330 8.7 9.6 0.00 0.00 0.00 27 1003.5
20260503202056 74 288 8.7 13.0 0.00 0.00 0.00 30 1003.4
20260503201554 74 297 6.1 7.8 0.00 0.00 0.00 30 1003.4
20260503201051 74 319 12.2 13.9 0.00 0.00 0.00 28 1003.5
20260503200547 74 327 7.8 9.6 0.00 0.00 0.00 32 1003.5
20260503200044 74 323 7.8 9.6 0.00 0.00 0.00 31 1003.5
20260503195541 74 311 8.7 9.6 0.00 0.00 0.00 29 1003.3
20260503195038 74 317 5.2 6.1 0.00 0.00 0.00 32 1003.4
20260503194535 75 319 8.7 9.6 0.00 0.00 0.00 30 1003.4
20260503194035 74 308 8.7 11.3 0.00 0.00 0.00 33 1003.4
20260503193532 74 338 7.0 8.7 0.00 0.00 0.00 31 1003.8
20260503193027 74 23 4.3 6.1 0.00 0.00 0.00 36 1003.5
20260503192523 74 303 8.7 9.6 0.00 0.00 0.00 32 1003.5
20260503192019 74 325 6.1 8.7 0.00 0.00 0.00 31 1003.4
20260503191516 74 320 8.7 11.3 0.00 0.00 0.00 31 1003.5
20260503191013 74 317 8.7 8.7 0.00 0.00 0.00 32 1003.5
20260503190510 74 333 6.1 7.0 0.00 0.00 0.00 34 1003.4
20260503190008 74 333 5.2 6.1 0.00 0.00 0.00 34 1003.4
20260503185504 73 297 10.4 12.2 0.00 0.00 0.00 30 1003.6
20260503185003 74 297 11.3 12.2 0.00 0.00 0.00 31 1003.4
20260503184500 73 311 7.8 8.7 0.00 0.00 0.00 32 1003.5
20260503183956 73 293 7.8 8.7 0.00 0.00 0.00 33 1003.6
20260503183453 73 283 9.6 12.2 0.00 0.00 0.00 33 1003.5
20260503182950 72 280 12.2 14.8 0.00 0.00 0.00 33 1003.7
20260503182449 72 303 9.6 11.3 0.00 0.00 0.00 34 1003.8
20260503181946 73 289 9.6 12.2 0.00 0.00 0.00 34 1003.8
20260503181443 72 325 6.1 7.8 0.00 0.00 0.00 36 1003.8
20260503180939 72 289 10.4 13.9 0.00 0.00 0.00 34 1003.7
20260503180437 73 296 9.6 13.9 0.00 0.00 0.00 35 1003.9
20260503175934 72 312 5.2 6.1 0.00 0.00 0.00 38 1004.0
20260503175432 71 305 13.0 14.8 0.00 0.00 0.00 36 1003.8
20260503174927 71 289 11.3 13.0 0.00 0.00 0.00 37 1004.1
20260503174426 70 293 9.6 11.3 0.00 0.00 0.00 38 1004.2
20260503173926 70 301 9.6 11.3 0.00 0.00 0.00 38 1004.3
20260503173422 71 303 12.2 14.8 0.00 0.00 0.00 37 1004.2
20260503172919 70 301 10.4 11.3 0.00 0.00 0.00 40 1004.2
20260503172417 69 297 11.3 13.0 0.00 0.00 0.00 39 1004.4
20260503171912 69 289 8.7 11.3 0.00 0.00 0.00 41 1004.4
20260503171410 69 302 7.8 9.6 0.00 0.00 0.00 42 1004.4
20260503170907 68 295 7.8 8.7 0.00 0.00 0.00 42 1004.5
20260503170403 69 294 7.0 9.6 0.00 0.00 0.00 45 1004.5
20260503150755 62 279 7.0 9.6 0.00 0.00 0.00 45 1005.3
20260503150251 61 236 1.7 4.3 0.00 0.00 0.00 48 1005.2
20260503140216 58 171 0.9 2.6 0.00 0.00 0.00 49 1005.9
20260503131145 54 175 6.1 9.6 0.00 0.00 0.00 53 1006.4
20260503130643 53 193 2.6 4.3 0.00 0.00 0.00 55 1006.4
20260503130140 53 344 0.9 1.7 0.00 0.00 0.00 55 1006.5
20260503120106 53 194 6.1 9.6 0.00 0.00 0.00 52 1006.8
20260503110533 53 186 1.7 4.3 0.00 0.00 0.00 50 1007.0